TimeAKST,TemperatureF,Dew PointF,Humidity,Sea Level PressureIn,VisibilityMPH,Wind Direction,Wind SpeedMPH,Gust SpeedMPH,PrecipitationIn,Events,Conditions,WindDirDegrees,DateUTC
12:16 AM,39.2,30.2,70,29.17,10.0,SE,25.3,28.8,0.01,,Overcast,140,2014-02-14 09:16:00
12:36 AM,39.2,30.2,70,29.15,9.0,SE,20.7,27.6,0.01,,Overcast,140,2014-02-14 09:36:00
12:56 AM,39.2,30.2,70,29.13,10.0,SE,20.7,28.8,0.01,,Overcast,130,2014-02-14 09:56:00
1:16 AM,39.2,30.2,70,29.12,10.0,SE,20.7,27.6,N/A,,Overcast,140,2014-02-14 10:16:00
1:36 AM,39.2,30.2,70,29.11,10.0,SE,18.4,29.9,N/A,,Overcast,130,2014-02-14 10:36:00
1:56 AM,39.2,30.2,70,29.09,10.0,SE,19.6,27.6,N/A,,Overcast,130,2014-02-14 10:56:00
2:16 AM,39.2,30.2,70,29.09,10.0,SE,20.7,27.6,N/A,,Overcast,140,2014-02-14 11:16:00
2:36 AM,39.2,30.2,70,29.08,10.0,SE,17.3,25.3,N/A,,Overcast,140,2014-02-14 11:36:00
2:56 AM,39.2,30.2,70,29.06,8.0,SE,19.6,27.6,N/A,,Overcast,130,2014-02-14 11:56:00
3:16 AM,39.2,30.2,70,29.04,10.0,SE,15.0,25.3,0.01,,Overcast,130,2014-02-14 12:16:00
3:36 AM,39.2,30.2,70,29.03,10.0,SE,16.1,20.7,0.01,,Overcast,130,2014-02-14 12:36:00
3:56 AM,39.2,32.0,75,29.02,10.0,ESE,13.8,20.7,0.01,,Overcast,120,2014-02-14 12:56:00
4:16 AM,39.2,30.2,70,29.01,10.0,SE,15.0,-,N/A,,Overcast,130,2014-02-14 13:16:00
4:36 AM,39.2,32.0,75,29.01,10.0,ESE,11.5,-,N/A,,Overcast,120,2014-02-14 13:36:00
4:56 AM,39.2,32.0,75,29.01,10.0,SE,15.0,19.6,N/A,,Overcast,130,2014-02-14 13:56:00
5:16 AM,39.2,30.2,70,29.00,10.0,SE,18.4,25.3,N/A,,Overcast,140,2014-02-14 14:16:00
5:36 AM,39.2,30.2,70,29.00,10.0,SE,17.3,21.9,0.01,,Overcast,130,2014-02-14 14:36:00
5:56 AM,39.2,30.2,70,29.01,10.0,SE,17.3,-,0.02,,Overcast,130,2014-02-14 14:56:00
6:16 AM,39.2,30.2,70,29.00,10.0,SE,18.4,-,N/A,,Overcast,130,2014-02-14 15:16:00
6:36 AM,39.2,30.2,70,29.00,10.0,SE,17.3,-,N/A,,Overcast,130,2014-02-14 15:36:00
6:56 AM,39.2,30.2,70,29.01,10.0,SE,15.0,-,N/A,,Overcast,130,2014-02-14 15:56:00
7:16 AM,39.2,30.2,70,29.00,10.0,ESE,16.1,21.9,N/A,,Overcast,120,2014-02-14 16:16:00
7:36 AM,39.2,32.0,75,29.02,10.0,SE,12.7,-,N/A,,Overcast,130,2014-02-14 16:36:00
7:56 AM,39.2,32.0,75,29.02,10.0,SE,13.8,17.3,N/A,,Overcast,130,2014-02-14 16:56:00
8:16 AM,41.0,30.2,65,29.02,10.0,SE,13.8,21.9,N/A,,Mostly Cloudy,130,2014-02-14 17:16:00
8:36 AM,41.0,32.0,70,29.03,10.0,SSE,15.0,21.9,N/A,,Mostly Cloudy,150,2014-02-14 17:36:00
8:56 AM,35.6,28.4,75,29.08,10.0,WNW,4.6,-,0.01,,Mostly Cloudy,300,2014-02-14 17:56:00
9:16 AM,37.4,30.2,75,29.11,10.0,SW,11.5,17.3,0.05,,Overcast,220,2014-02-14 18:16:00
9:36 AM,37.4,30.2,75,29.14,10.0,South,17.3,23.0,0.07,,Overcast,190,2014-02-14 18:36:00
9:56 AM,37.4,28.4,70,29.15,10.0,South,16.1,25.3,0.08,,Overcast,180,2014-02-14 18:56:00
10:16 AM,37.4,28.4,70,29.18,10.0,SSW,11.5,20.7,N/A,,Overcast,200,2014-02-14 19:16:00
10:36 AM,37.4,28.4,70,29.20,10.0,South,12.7,-,N/A,,Overcast,190,2014-02-14 19:36:00
10:56 AM,37.4,28.4,70,29.23,10.0,SSW,9.2,-,N/A,,Overcast,200,2014-02-14 19:56:00
11:16 AM,37.4,28.4,70,29.25,10.0,SSW,11.5,16.1,N/A,,Overcast,200,2014-02-14 20:16:00
11:36 AM,37.4,28.4,70,29.28,10.0,SSW,6.9,-,N/A,,Overcast,210,2014-02-14 20:36:00
11:56 AM,39.2,28.4,65,29.30,10.0,South,9.2,19.6,N/A,,Overcast,190,2014-02-14 20:56:00
12:16 PM,39.2,30.2,70,29.32,10.0,SSW,6.9,-,N/A,,Overcast,200,2014-02-14 21:16:00
12:36 PM,39.2,28.4,65,29.34,10.0,SSW,12.7,16.1,N/A,,Overcast,200,2014-02-14 21:36:00
12:56 PM,37.4,28.4,70,29.37,10.0,SSW,16.1,21.9,N/A,,Overcast,200,2014-02-14 21:56:00
1:16 PM,39.2,28.4,65,29.39,10.0,SW,10.4,16.1,N/A,,Overcast,230,2014-02-14 22:16:00
1:36 PM,39.2,26.6,61,29.40,10.0,SSW,9.2,16.1,N/A,,Overcast,200,2014-02-14 22:36:00
1:56 PM,39.2,26.6,61,29.43,10.0,South,6.9,-,N/A,,Mostly Cloudy,180,2014-02-14 22:56:00
2:16 PM,39.2,26.6,61,29.44,10.0,SSE,6.9,-,N/A,,Mostly Cloudy,160,2014-02-14 23:16:00
2:36 PM,39.2,28.4,65,29.45,10.0,SE,3.5,-,N/A,,Mostly Cloudy,130,2014-02-14 23:36:00
2:56 PM,37.4,28.4,70,29.46,10.0,South,4.6,-,N/A,,Mostly Cloudy,170,2014-02-14 23:56:00
3:16 PM,39.2,28.4,65,29.47,10.0,SE,6.9,-,N/A,,Mostly Cloudy,130,2014-02-15 00:16:00
3:36 PM,39.2,28.4,65,29.48,10.0,SSE,9.2,-,N/A,,Mostly Cloudy,150,2014-02-15 00:36:00
3:56 PM,39.2,28.4,65,29.47,10.0,ESE,15.0,20.7,N/A,,Mostly Cloudy,120,2014-02-15 00:56:00
4:16 PM,39.2,30.2,70,29.48,10.0,ESE,16.1,-,N/A,,Mostly Cloudy,120,2014-02-15 01:16:00
4:36 PM,39.2,30.2,70,29.49,10.0,ESE,13.8,-,N/A,,Mostly Cloudy,120,2014-02-15 01:36:00
4:56 PM,39.2,28.4,65,29.50,10.0,SE,15.0,-,N/A,,Overcast,140,2014-02-15 01:56:00
5:16 PM,39.2,28.4,65,29.50,10.0,SE,13.8,-,N/A,,Overcast,130,2014-02-15 02:16:00
5:36 PM,39.2,28.4,65,29.50,10.0,SE,18.4,-,N/A,,Overcast,140,2014-02-15 02:36:00
5:56 PM,39.2,26.6,61,29.50,10.0,SE,18.4,-,N/A,,Partly Cloudy,140,2014-02-15 02:56:00
6:16 PM,39.2,28.4,65,29.50,10.0,ESE,15.0,-,N/A,,Partly Cloudy,120,2014-02-15 03:16:00
6:36 PM,39.2,28.4,65,29.50,10.0,SE,15.0,19.6,N/A,,Partly Cloudy,130,2014-02-15 03:36:00
6:56 PM,39.2,28.4,65,29.50,10.0,SE,18.4,24.2,N/A,,Partly Cloudy,140,2014-02-15 03:56:00
7:16 PM,37.4,30.2,75,29.50,10.0,ESE,18.4,-,N/A,,Partly Cloudy,120,2014-02-15 04:16:00
7:36 PM,37.4,28.4,70,29.51,10.0,ESE,17.3,-,N/A,,Partly Cloudy,120,2014-02-15 04:36:00
7:56 PM,37.4,28.4,70,29.50,10.0,SE,16.1,25.3,N/A,,Overcast,130,2014-02-15 04:56:00
8:16 PM,37.4,30.2,75,29.50,10.0,ESE,18.4,-,N/A,,Overcast,120,2014-02-15 05:16:00
8:36 PM,37.4,30.2,75,29.50,10.0,ESE,18.4,25.3,N/A,,Overcast,120,2014-02-15 05:36:00
8:56 PM,37.4,30.2,75,29.50,10.0,SE,18.4,24.2,N/A,,Mostly Cloudy,130,2014-02-15 05:56:00
9:16 PM,37.4,30.2,75,29.49,10.0,SE,19.6,25.3,N/A,,Mostly Cloudy,130,2014-02-15 06:16:00
9:36 PM,39.2,30.2,70,29.49,10.0,ESE,17.3,23.0,N/A,,Mostly Cloudy,120,2014-02-15 06:36:00
9:56 PM,37.4,30.2,75,29.48,10.0,ESE,23.0,28.8,0.01,,Mostly Cloudy,120,2014-02-15 06:56:00
10:16 PM,37.4,30.2,75,29.49,10.0,SE,18.4,25.3,N/A,,Mostly Cloudy,130,2014-02-15 07:16:00
10:36 PM,37.4,30.2,75,29.49,10.0,SE,20.7,27.6,N/A,,Mostly Cloudy,130,2014-02-15 07:36:00
10:56 PM,37.4,30.2,75,29.49,10.0,ESE,19.6,25.3,0.01,,Mostly Cloudy,120,2014-02-15 07:56:00
11:16 PM,37.4,30.2,75,29.49,10.0,ESE,20.7,24.2,0.01,,Overcast,120,2014-02-15 08:16:00
11:36 PM,37.4,32.0,81,29.49,10.0,ESE,13.8,-,0.01,,Overcast,110,2014-02-15 08:36:00
11:56 PM,37.4,30.2,75,29.49,10.0,ESE,15.0,20.7,0.02,,Overcast,120,2014-02-15 08:56:00